Regional Weather Roundup
Issued by NWS

Home | Current Version | Previous Version | Graphics & Text | Print | Product List | Glossary Off
Versions: 1 2 3 4 5 6 7 8 9 10 11 12 13 14 15 16 17 18 19 20 21 22 23 24 25 26 27 28 29 30 31 32 33 34 35 36 37 38 39 40 41 42 43 44 45 46 47 48 49 50

000
ASUS43 KIND 311559
RWRIN

WEATHER ROUNDUP FOR INDIANA
NATIONAL WEATHER SERVICE INDIANAPOLIS IN
1200 PM EDT TUE MAY 31 2016

NOTE: "FAIR" INDICATES FEW OR NO CLOUDS BELOW 12,000 FEET WITH NO
SIGNIFICANT WEATHER AND/OR OBSTRUCTIONS TO VISIBILITY.

* - STATION DOES NOT REPORT WEATHER SUCH AS PRECIPITATION OR FOG.

+ - STATION NOT QUALITY CONTROLLED BY THE NATIONAL WEATHER SERVICE.
    USE DATA WITH CAUTION...ESPECIALLY DEWPOINT AND RELATIVE
    HUMIDITY OBSERVATIONS.

INZ001>003-010>013-019-020-311700-
NORTHWEST INDIANA

CITY           SKY/WX    TMP DP  RH WIND       PRES   REMARKS
GARY /AIRPORT/ PTSUNNY   81  66  61 SE8       29.99F
RENSSELAER +   CLOUDY    81  52  36 SE9       29.98F

$$

LMZ046-743>745-311700-
SOUTHERN LAKE MICHIGAN

STATION/POSITION TIME  TEMP    WIND        PRES    WAVE
                       AIR SEA DIR/SP/G            HT
                 (UTC) (F)     (DEG/KT/KT) (MB)    (FT)
BURNS HARBOR     1500   75     100/  6/ 11 1016.3F
MICHIGAN CITY    1500   75     110/  8/ 11   N/A
5NW MICH CITY    1510   66 62   70/  4/  4   N/A     0

$$

INZ004-005-014>016-021>024-311700-
NORTH CENTRAL INDIANA

CITY           SKY/WX    TMP DP  RH WIND       PRES   REMARKS
ELKHART        CLOUDY    81  57  44 E6        30.02F
GOSHEN         CLOUDY    80  54  40 E5        30.02S
SOUTH BEND     CLOUDY    77  54  44 MISG        N/A

$$

INZ006>009-017-018-025>027-311700-
NORTHEAST INDIANA

CITY           SKY/WX    TMP DP  RH WIND       PRES   REMARKS
ANGOLA *+        N/A     81  46  30 E12       30.04S
FORT WAYNE     PTSUNNY   79  56  45 E7        30.03S

$$

INZ028-029-035-036-043>045-051>053-311700-
WEST CENTRAL INDIANA

CITY           SKY/WX    TMP DP  RH WIND       PRES   REMARKS
CRAWFORDSVL +  CLOUDY    83  57  41 S5        29.99S
GREENCASTLE +  PTSUNNY   81  66  61 S5        30.00F
LAFAYETTE      MOSUNNY   81  61  50 VRB6      29.98S
TERRE HAUTE    SUNNY     83  60  45 SE8       29.99R

$$

INZ030>032-037>040-046>048-054>057-064-065-311700-
CENTRAL INDIANA

CITY           SKY/WX    TMP DP  RH WIND       PRES   REMARKS
INDIANAPOLIS   CLOUDY    82  60  47 SE5       29.99F
-EAGLE CREEK   CLOUDY    83  58  42 S5        29.99F
KOKOMO *+      CLOUDY    81  55  41 SE13      30.00F
SHELBYVILLE    MOSUNNY   86  53  32 NW5       30.00S

$$

INZ033-034-041-042-049-050-058-059-311700-
EAST CENTRAL INDIANA

CITY           SKY/WX    TMP DP  RH WIND       PRES   REMARKS
MUNCIE         PTSUNNY   83  55  38 E3        30.01F

$$

INZ060-061-067>069-081>083-085>088-311700-
SOUTHWEST INDIANA

CITY           SKY/WX    TMP DP  RH WIND       PRES   REMARKS
EVANSVILLE     MOSUNNY   84  60  44 S7        29.99R
HUNTINGBURG *+ MOSUNNY   84  64  51 SE10      29.99S

$$

INZ062-063-066-070>080-084-089>092-311700-
SOUTH CENTRAL AND SOUTHEAST INDIANA

CITY           SKY/WX    TMP DP  RH WIND       PRES   REMARKS
BLOOMINGTON    PTSUNNY   81  59  47 SE8       30.00S
MADISON *+     CLOUDY    81  57  44 CALM      30.04S
SEYMOUR +      MOSUNNY   84  59  42 S5        30.00S

$$





USA.gov is the U.S. government's official web portal to all federal, state and local government web resources and services.